Hourly Data Report for November 27, 2019

OTTAWA INTL A
ONTARIO
Current Station Operator: NAVCAN

45°19'00.000" N
75°40'00.000" W
114.90 m
6106001
71628
YOW

Download Data

Hourly Data (November 2019)
Hourly Data Report for November 27, 2019
TIME Temp Definition
°C
Dew Point Definition
°C
Rel Hum Definition
%
Wind Dir Definition
10's deg

Wind Spd Definition
km/h
Visibility Definition
km
Stn Press Definition
kPa
Hmdx Definition


Wind Chill Definition


Weather Definition


00:00 -1.2 -3.0 88 7 4 24.1 100.40   -3 LegendNANA
01:00 -1.4 -2.2 94 5 12 24.1 100.34   -5 Mainly Clear
02:00 -1.7 -2.8 93 4 14 24.1 100.36   -6 LegendNANA
03:00 -1.1 -2.0 94 4 11 24.1 100.39   -5 LegendNANA
04:00 -1.4 -2.1 95 5 13 24.1 100.40   -6 Mainly Clear
05:00 -1.1 -1.7 96 4 15 24.1 100.32   -6 LegendNANA
06:00 0.2 -0.8 93 4 18 24.1 100.24     LegendNANA
07:00 0.5 -1.0 90 6 19 24.1 100.10     Mostly Cloudy
08:00 1.0 -0.9 88 7 19 24.1 100.06     Rain
09:00 1.0 -0.2 92 6 23 16.1 99.99     Rain
10:00 1.2 -0.1 91 6 26 16.1 99.96     Rain
11:00 1.2 0.2 93 6 36 16.1 99.66     Rain
12:00 1.5 0.5 93 6 37 24.1 99.41     Rain
13:00 2.6 1.2 90 7 37 24.1 99.11     Mostly Cloudy
14:00 3.1 0.9 85 7 40 24.1 98.82     LegendNANA
15:00 2.6 1.1 90 7 35 8.1 98.70     Rain,Fog
16:00 2.4 1.6 94 6 27 4.8 98.69     Rain,Fog
17:00 2.2 1.6 95 6 34 9.7 98.57     Rain,Fog
18:00 2.4 1.7 95 7 20 24.1 98.50     Rain
19:00 2.5 1.8 95 7 25 16.1 98.45     Cloudy
20:00 2.3 1.6 96 7 14 11.3 98.44     LegendNANA
21:00 1.9 1.4 97 5 14 6.4 98.47     Rain,Fog
22:00 1.8 1.4 97 6 15 6.4 98.53     Rain,Fog
23:00 1.6 1.2 97 5 13 16.1 98.60     Rain

Notes on Data Quality.

Legend

  • E = Estimated
  • M = Missing
  • NA = Not Available*
  • [empty] = Indicates an unobserved value
Date modified: